Location: �quirre
(50.4736°N, 2.2351°E)
Time: 04:08:32
(UTC+00:00)

USA 267 - Pass Details

Date: 07 August 2020
Orbit: 1102 x 1106 km, 123.0° (Epoch: 18 September)

Event Time Altitude Azimuth Distance (km) Brightness Sun altitude
Rises 00:30:50 0° 90° (E) 3,920 6.3 -22.8°
Reaches altitude 10° 00:33:21 10° 86° (E) 2,963 5.7 -22.7°
Maximum altitude 00:39:41 55° 11° (N) 1,312 4.0 -22.5°
Drops below altitude 10° 00:46:02 10° 296° (WNW) 2,968 5.7 -22.3°
Sets 00:48:34 0° 292° (WNW) 3,928 6.3 -22.2°
